Al Hoceima, Morocco

9:46 PM WET on December 16, 2017 (GMT +0000)
Al Hoceima

Weather History for GMTA - December, 2012

Change the Weather History Date:

Monday, December 10, 2012

  Actual Average Record
Temperature  
Mean Temperature 58 °F -  
Max Temperature 66 °F 60 °F 73 °F (2017)
Min Temperature 50 °F 46 °F 41 °F (2013)
Degree Days  
Heating Degree Days 7    
Growing Degree Days 8 (Base 50)    
Moisture  
Dew Point 52 °F    
Average Humidity 75    
Maximum Humidity 82    
Minimum Humidity 59    
Precipitation  
Precipitation 0.00 in - - ()
Sea Level Pressure  
Sea Level Pressure 30.14 in    
Wind  
Wind Speed 4 mph ()    
Max Wind Speed 9 mph    
Max Gust Speed -    
Visibility 6.1 miles    
Events      
Averages and records for this station are not official NWS values.
T = Trace of Precipitation, MM = Missing Value Source: Averaged Metar Reports

Daily Weather History Graph

Daily Weather History Graph

Search for Another Location

Airport or City:

Trip Planner

Search our weather history database for the weather conditions in past years. The results will help you decide how hot, cold, wet, or windy it might be!

Date:

Astronomy

Dec. 10, 2012 Rise Set
Actual Time 7:13 AM WET 5:03 PM WET
Civil Twilight 6:45 AM WET 5:31 PM WET
Nautical Twilight 6:13 AM WET 6:03 PM WET
Astronomical Twilight 5:42 AM WET 6:34 PM WET
Moon 3:44 AM WET (12/10) 2:38 PM WET (12/10)
Length of Visible Light 10h 46m
Length of Day
9h 50m
Waning Crescent, 12% of the Moon is Illuminated
Dec 10
Waning Crescent
Dec 13
New
Dec 20
First Quarter
Dec 28
Full
Jan 5
Last Quarter

Hourly Weather History & Observations

Time (WET) Temp. Dew Point Humidity Pressure Visibility Wind Dir Wind Speed Gust Speed Precip Events Conditions
6:00 AM 52 °F 47 °F 76% 30.17 in 6 mi South 6.9 mph - -   Scattered Clouds
6:00 AM 51.8 °F 46.4 °F 82% 30.15 in 6.2 mi South 6.9 mph - N/A   Partly Cloudy
7:00 AM 51.8 °F 46.4 °F 82% 30.15 in 6.2 mi South 4.6 mph - N/A   Scattered Clouds
8:00 AM 51.8 °F 46.4 °F 82% 30.18 in 6.2 mi SSW 4.6 mph - N/A   Scattered Clouds
9:00 AM 56 °F 50 °F 73% 30.20 in 6 mi South 4.6 mph - -   Scattered Clouds
9:00 AM 55.4 °F 50.0 °F 82% 30.18 in 6.2 mi South 4.6 mph - N/A   Mostly Cloudy
10:00 AM 60.8 °F 51.8 °F 72% 30.18 in 6.2 mi SSW 2.3 mph - N/A   Mostly Cloudy
11:00 AM 62.6 °F 51.8 °F 68% 30.18 in 6.2 mi South 2.3 mph - N/A   Mostly Cloudy
12:00 PM 65 °F 54 °F 59% 30.17 in 6 mi NE 2.3 mph - -   Scattered Clouds
12:00 PM 66.2 °F 53.6 °F 64% 30.15 in 6.2 mi NE 2.3 mph - N/A   Mostly Cloudy
1:00 PM 64.4 °F 55.4 °F 73% 30.12 in 6.2 mi NNE 6.9 mph - N/A   Mostly Cloudy
2:00 PM 64.4 °F 55.4 °F 73% 30.12 in 6.2 mi NNE 4.6 mph - N/A   Mostly Cloudy
3:00 PM 64 °F 55 °F 66% 30.11 in 6 mi NNW 4.6 mph - -   Scattered Clouds
3:00 PM 64.4 °F 55.4 °F 73% 30.09 in 6.2 mi NNW 9.2 mph - N/A   Scattered Clouds
4:00 PM 62.6 °F 55.4 °F 77% 30.09 in 6.2 mi North 6.9 mph - N/A   Scattered Clouds
5:00 PM 60.8 °F 51.8 °F 72% 30.09 in 6.2 mi WNW 4.6 mph - N/A   Scattered Clouds
6:00 PM 59 °F 51 °F 69% 30.11 in 6 mi South 2.3 mph - -   Scattered Clouds
6:00 PM 59.0 °F 51.8 °F 77% 30.09 in 6.2 mi South 2.3 mph - N/A   Scattered Clouds
7:00 PM 57.2 °F 51.8 °F 82% 30.12 in 6.2 mi SW 2.3 mph - N/A   Scattered Clouds
8:00 PM 57.2 °F 51.8 °F 82% 30.12 in 6.2 mi SSW 4.6 mph - N/A   Partly Cloudy
9:00 PM 57 °F 51 °F 74% 30.12 in 6 mi South 4.6 mph - -   Scattered Clouds
9:00 PM 57.2 °F 51.8 °F 82% 30.09 in 6.2 mi South 4.6 mph - N/A   Partly Cloudy